| time (UTC) | temp C | wind direction | speed KPH | gust KPH | rain 1hr cm | rain 24hr cm | rain mn cm | humidity % | barometer mb |
| 20260901181545 | 31 | 213 | 8.0 | 19.3 | 0.00 | 0.84 | 0.00 | 75 | 1012.7 |
| 20260901180025 | 31 | 162 | 4.8 | 17.7 | 0.00 | 0.84 | 0.00 | 76 | 1012.8 |
| 20260901174545 | 31 | 113 | 4.8 | 16.1 | 0.00 | 0.84 | 0.00 | 76 | 1013.0 |
| 20260901173023 | 31 | 123 | 4.8 | 12.9 | 0.00 | 0.84 | 0.00 | 76 | 1012.8 |
| 20260901171531 | 31 | 119 | 3.2 | 14.5 | 0.00 | 0.84 | 0.00 | 74 | 1012.8 |
| 20260901170023 | 31 | 147 | 6.4 | 12.9 | 0.00 | 0.84 | 0.00 | 72 | 1012.7 |
| 20260901164524 | 31 | 157 | 1.6 | 11.3 | 0.00 | 0.84 | 0.00 | 75 | 1012.8 |
| 20260901163021 | 31 | 155 | 1.6 | 4.8 | 0.00 | 0.84 | 0.00 | 77 | 1012.9 |
| 20260901161514 | 29 | 311 | 0.0 | 1.6 | 0.00 | 0.84 | 0.00 | 79 | 1012.8 |
| 20260901160013 | 27 | 311 | 0.0 | 1.6 | 0.00 | 0.84 | 0.00 | 80 | 1012.9 |
| 20260901154505 | 27 | 311 | 0.0 | 3.2 | 0.00 | 0.84 | 0.00 | 82 | 1012.9 |
| 20260901153114 | 26 | 311 | 0.0 | 3.2 | 0.00 | 0.84 | 0.00 | 83 | 1012.9 |
| 20260901151604 | 26 | 311 | 0.0 | 6.4 | 0.00 | 0.84 | 0.00 | 84 | 1012.7 |
| 20260901150058 | 25 | 314 | 1.6 | 8.0 | 0.00 | 0.84 | 0.00 | 85 | 1012.5 |
| 20260901144555 | 25 | 313 | 0.0 | 4.8 | 0.00 | 0.84 | 0.00 | 85 | 1012.5 |
| 20260901143118 | 25 | 307 | 3.2 | 8.0 | 0.00 | 0.84 | 0.00 | 86 | 1012.3 |
| 20260901141554 | 24 | 313 | 3.2 | 8.0 | 0.00 | 0.84 | 0.00 | 87 | 1012.2 |
| 20260901140055 | 24 | 309 | 1.6 | 6.4 | 0.00 | 0.84 | 0.00 | 87 | 1012.0 |
| 20260901134554 | 23 | 308 | 1.6 | 4.8 | 0.00 | 0.84 | 0.00 | 87 | 1011.8 |
| 20260901133054 | 24 | 307 | 1.6 | 6.4 | 0.00 | 0.84 | 0.00 | 87 | 1011.8 |
| 20260901131554 | 24 | 312 | 0.0 | 4.8 | 0.00 | 0.84 | 0.00 | 87 | 1011.7 |
| 20260901130050 | 23 | 313 | 0.0 | 8.0 | 0.00 | 0.84 | 0.00 | 87 | 1011.7 |
| 20260901124550 | 23 | 319 | 0.0 | 4.8 | 0.00 | 0.84 | 0.00 | 87 | 1011.7 |
| 20260901123101 | 23 | 310 | 0.0 | 6.4 | 0.00 | 0.84 | 0.00 | 87 | 1011.5 |
| 20260901121549 | 24 | 318 | 0.0 | 6.4 | 0.00 | 0.84 | 0.00 | 87 | 1011.6 |
| 20260901120056 | 24 | 320 | 0.0 | 3.2 | 0.00 | 0.84 | 0.00 | 87 | 1011.4 |
| 20260901114549 | 24 | 318 | 0.0 | 3.2 | 0.00 | 0.84 | 0.00 | 87 | 1011.3 |
| 20260901113050 | 24 | 317 | 0.0 | 3.2 | 0.00 | 0.84 | 0.00 | 87 | 1011.3 |
| 20260901111550 | 24 | 307 | 0.0 | 4.8 | 0.00 | 0.84 | 0.00 | 87 | 1011.2 |
| 20260901110045 | 24 | 304 | 1.6 | 4.8 | 0.00 | 0.84 | 0.00 | 87 | 1011.2 |
| 20260901104547 | 24 | 304 | 0.0 | 4.8 | 0.00 | 0.84 | 0.00 | 87 | 1011.2 |
| 20260901103042 | 25 | 303 | 0.0 | 1.6 | 0.00 | 0.84 | 0.00 | 87 | 1011.4 |
| 20260901101541 | 25 | 303 | 0.0 | 0.0 | 0.00 | 0.84 | 0.00 | 86 | 1011.2 |
| 20260901100046 | 25 | 303 | 0.0 | 1.6 | 0.00 | 0.84 | 0.00 | 86 | 1011.5 |
| 20260901094538 | 25 | 303 | 0.0 | 0.0 | 0.00 | 0.84 | 0.00 | 86 | 1011.6 |
| 20260901093037 | 25 | 311 | 1.6 | 6.4 | 0.00 | 0.84 | 0.00 | 86 | 1011.7 |
| 20260901091536 | 25 | 312 | 1.6 | 3.2 | 0.00 | 0.84 | 0.00 | 86 | 1011.8 |
| 20260901090035 | 25 | 312 | 1.6 | 6.4 | 0.00 | 0.84 | 0.00 | 86 | 1011.7 |
| 20260901084536 | 25 | 312 | 0.0 | 4.8 | 0.00 | 0.84 | 0.00 | 86 | 1011.7 |
| 20260901083033 | 25 | 312 | 0.0 | 3.2 | 0.00 | 0.84 | 0.00 | 86 | 1011.8 |
| 20260901081533 | 25 | 310 | 1.6 | 4.8 | 0.00 | 0.84 | 0.00 | 86 | 1011.9 |
| 20260901080032 | 25 | 310 | 0.0 | 1.6 | 0.00 | 0.84 | 0.00 | 86 | 1012.2 |
| 20260901074528 | 25 | 310 | 0.0 | 0.0 | 0.00 | 0.84 | 0.00 | 86 | 1012.3 |
| 20260901073030 | 25 | 310 | 0.0 | 4.8 | 0.00 | 0.84 | 0.00 | 86 | 1012.4 |
| 20260901071526 | 25 | 310 | 1.6 | 6.4 | 0.00 | 0.84 | 0.00 | 86 | 1012.4 |
| 20260901070023 | 25 | 310 | 0.0 | 4.8 | 0.00 | 0.84 | 0.00 | 86 | 1012.5 |
| 20260901064525 | 25 | 312 | 0.0 | 8.0 | 0.00 | 0.84 | 0.84 | 86 | 1012.5 |
| 20260901063032 | 25 | 311 | 0.0 | 6.4 | 0.00 | 0.84 | 0.84 | 86 | 1012.5 |
| 20260901061522 | 25 | 313 | 1.6 | 4.8 | 0.00 | 0.84 | 0.84 | 86 | 1012.5 |
| 20260901060021 | 25 | 317 | 0.0 | 1.6 | 0.00 | 0.84 | 0.84 | 86 | 1012.4 |
| 20260901054521 | 25 | 319 | 1.6 | 3.2 | 0.00 | 0.84 | 0.84 | 86 | 1012.3 |
| 20260901053024 | 26 | 319 | 0.0 | 3.2 | 0.00 | 0.84 | 0.84 | 86 | 1012.3 |
| 20260901051532 | 26 | 319 | 0.0 | 3.2 | 0.00 | 0.84 | 0.84 | 86 | 1012.3 |
| 20260901050020 | 26 | 319 | 0.0 | 3.2 | 0.00 | 0.84 | 0.84 | 86 | 1012.2 |
| 20260901044519 | 26 | 316 | 0.0 | 1.6 | 0.00 | 0.84 | 0.84 | 86 | 1012.3 |
| 20260901043030 | 26 | 315 | 0.0 | 4.8 | 0.00 | 0.84 | 0.84 | 86 | 1012.2 |
| 20260901041519 | 26 | 315 | 0.0 | 1.6 | 0.00 | 0.84 | 0.84 | 86 | 1012.1 |
| 20260901040023 | 26 | 313 | 0.0 | 4.8 | 0.00 | 0.84 | 0.84 | 86 | 1012.0 |
| 20260901034518 | 26 | 313 | 0.0 | 3.2 | 0.00 | 0.84 | 0.84 | 86 | 1011.9 |
| 20260901033019 | 26 | 313 | 0.0 | 3.2 | 0.00 | 0.84 | 0.84 | 86 | 1011.4 |
| 20260901031518 | 26 | 313 | 0.0 | 3.2 | 0.00 | 0.84 | 0.84 | 86 | 1011.2 |
| 20260901030016 | 26 | 313 | 0.0 | 1.6 | 0.00 | 0.84 | 0.84 | 86 | 1011.1 |
| 20260901024516 | 26 | 313 | 0.0 | 0.0 | 0.00 | 0.84 | 0.84 | 85 | 1011.0 |
| 20260901023025 | 26 | 313 | 0.0 | 0.0 | 0.00 | 0.84 | 0.84 | 85 | 1010.9 |
| 20260901021515 | 26 | 313 | 0.0 | 4.8 | 0.00 | 0.84 | 0.84 | 85 | 1010.6 |
| 20260901020014 | 26 | 313 | 0.0 | 4.8 | 0.00 | 0.84 | 0.84 | 85 | 1010.5 |
| 20260901014514 | 26 | 319 | 0.0 | 3.2 | 0.00 | 0.84 | 0.84 | 85 | 1010.2 |
| 20260901013014 | 26 | 319 | 0.0 | 3.2 | 0.00 | 0.84 | 0.84 | 86 | 1010.3 |
| 20260901011516 | 26 | 320 | 1.6 | 6.4 | 0.00 | 0.84 | 0.84 | 86 | 1010.1 |
| 20260901010012 | 26 | 318 | 0.0 | 8.0 | 0.00 | 0.84 | 0.84 | 86 | 1009.9 |
| 20260901004512 | 26 | 360 | 0.0 | 3.2 | 0.00 | 0.84 | 0.84 | 86 | 1009.7 |
| 20260901003012 | 26 | 316 | 0.0 | 6.4 | 0.00 | 0.84 | 0.84 | 86 | 1009.6 |
| 20260901001511 | 26 | 306 | 1.6 | 6.4 | 0.00 | 0.84 | 0.84 | 86 | 1009.7 |
| 20260901000010 | 26 | 303 | 3.2 | 9.7 | 0.00 | 0.84 | 0.84 | 86 | 1009.8 |
| 20260831234511 | 26 | 355 | 0.0 | 1.6 | 0.00 | 0.84 | 0.84 | 87 | 1009.7 |
| 20260831233009 | 25 | 348 | 1.6 | 9.7 | 0.00 | 0.84 | 0.84 | 87 | 1009.5 |
| 20260831231508 | 25 | 355 | 1.6 | 8.0 | 0.00 | 0.84 | 0.84 | 87 | 1009.7 |
| 20260831230010 | 25 | 308 | 1.6 | 14.5 | 0.00 | 0.84 | 0.84 | 87 | 1009.8 |
| 20260831224506 | 24 | 326 | 0.0 | 8.0 | 0.00 | 0.84 | 0.84 | 87 | 1010.2 |
| 20260831223006 | 24 | 9 | 1.6 | 14.5 | 0.00 | 0.84 | 0.84 | 87 | 1010.3 |
| 20260831221505 | 24 | 24 | 3.2 | 12.9 | 0.03 | 0.84 | 0.84 | 87 | 1010.3 |
| 20260831220007 | 24 | 360 | 1.6 | 9.7 | 0.15 | 0.84 | 0.84 | 87 | 1010.5 |
| 20260831214503 | 24 | 41 | 0.0 | 9.7 | 0.64 | 0.84 | 0.84 | 87 | 1010.8 |
| 20260831213002 | 24 | 22 | 1.6 | 9.7 | 0.84 | 0.84 | 0.84 | 87 | 1011.2 |
| 20260831211503 | 24 | 304 | 3.2 | 11.3 | 0.81 | 0.81 | 0.81 | 86 | 1011.5 |
| 20260831210001 | 24 | 317 | 4.8 | 19.3 | 0.66 | 0.66 | 0.66 | 86 | 1012.1 |
| 20260831204558 | 25 | 355 | 4.8 | 25.7 | 0.20 | 0.20 | 0.20 | 83 | 1012.4 |
| 20260831203054 | 28 | 34 | 11.3 | 33.8 | 0.00 | 0.00 | 0.00 | 74 | 1012.0 |
| 20260831201553 | 34 | 57 | 9.7 | 20.9 | 0.00 | 0.00 | 0.00 | 62 | 1011.8 |
| 20260831200051 | 34 | 103 | 3.2 | 16.1 | 0.00 | 0.00 | 0.00 | 66 | 1011.0 |
| 20260831194625 | 33 | 149 | 4.8 | 12.9 | 0.00 | 0.00 | 0.00 | 67 | 1011.4 |
| 20260831193048 | 34 | 97 | 3.2 | 12.9 | 0.00 | 0.00 | 0.00 | 67 | 1011.7 |
| 20260831191548 | 33 | 153 | 4.8 | 11.3 | 0.00 | 0.00 | 0.00 | 65 | 1011.8 |
| 20260831190059 | 33 | 123 | 3.2 | 12.9 | 0.00 | 0.00 | 0.00 | 65 | 1011.8 |
| 20260831184541 | 32 | 173 | 3.2 | 9.7 | 0.00 | 0.00 | 0.00 | 63 | 1012.2 |
| 20260831183036 | 31 | 95 | 1.6 | 4.8 | 0.00 | 0.00 | 0.00 | 64 | 1012.5 |